Simultaneous Nadir Overpasses (SNOs) Predictions

Prediction of SNOs between TERRA and METOP-C Satellite Orbit:

Table of predicted SNOs for the next 14.0 days since TLE Epoch: 1/13/2024
Index Date (TERRA) Time (TERRA) Lat,Lon (TERRA) SZA (TERRA ) Date (METOP-C) Time (METOP-C) Lat,Lon (METOP-C) SZA (METOP-C ) Distance(km) Time Diff (sec)
1 01/14/2024 09:52:26 -79.85,-127.16 78.34 01/14/2024 09:51:38 -79.84,-127.29 78.37 2.63 48
2 01/14/2024 10:41:43 80.02, 41.76 101.88 01/14/2024 10:42:14 80.00, 41.61 101.87 3.19 31
3 01/17/2024 01:13:07 79.92,-176.88 101.25 01/17/2024 01:12:33 79.92,-176.80 101.25 1.59 34
4 01/17/2024 02:02:26 -80.02, -8.40 78.61 01/17/2024 02:03:10 -80.02, -8.48 78.61 1.55 44
5 01/19/2024 16:33:51 -79.90, 132.80 79.31 01/19/2024 16:33:31 -79.90, 132.78 79.32 0.44 20
6 01/19/2024 17:23:08 80.05, -58.36 100.89 01/19/2024 17:24:07 80.05, -58.37 100.90 0.30 59
7 01/22/2024 07:54:33 79.90, 82.59 100.10 01/22/2024 07:54:29 79.90, 82.48 100.09 2.34 4
8 01/22/2024 08:43:51 -80.05,-108.56 79.70 01/22/2024 08:45:04 -80.06,-108.53 79.68 0.81 73
9 01/24/2024 22:25:57 79.76,-136.35 99.29 01/24/2024 22:24:50 79.75,-136.40 99.27 1.22 67



Historial Predications of SNOs between TERRA and METOP-C
